Flag for Germany Weather past 2 weeks in Hanau, Hesse, Germany

Now
77 °F

Thunderstorms. Broken clouds.


Feels Like: 79 °F
Forecast: 63 / 78 °F
Wind: 12 mph from Southwest

Location: Frankfurt-M-Flughafen Airport

Current Time: Jul 29, 2014 at 6:11:14 PM

Latest Report: Jul 29, 2014 at 5:20 PM


Visibility: N/A

Pressure: 29.74 "Hg

Humidity: 74%

Dew point: 68 °F

Location of HanauLocation

Historic Weather in Hanau — Graph

°F

Hanau temperature yesterday

Maximum temperature yesterday: 86 °F (at 3:50 PM)
Minimum temperature yesterday: 64 °F (at 5:50 AM)
Average temperature yesterday: 72 °F

Past Weeks' High & Low Weather Summary

 TemperatureHumidityPressure
High93 °F (Jul 19, 4:20 PM)100% (Jul 17, 4:50 AM)30.18 "Hg (Jul 17, 4:50 AM)
Low59 °F (Jul 17, 4:50 AM)23% (Jul 18, 6:20 PM)29.71 "Hg (Jul 29, 4:50 PM)
Average73 °F66%29.96 "Hg
* Reported Jul 14 4:20 PM — Jul 29 4:50 PM, Hanau, Weather by CustomWeather, © 2014

Note: Actual official high and low records may vary slightly from our data, if they occured in-between our weather recording intervals... More about our weather records

Advertising

Hanau weather history for previous 24 hours

 ConditionsComfort  
Time TempWeatherWind HumidityBarometerVisibility
4:50 PM
Jul 29
79 °FBroken clouds.3 mph65%29.71 "HgN/A
4:20 PM77 °FPartly sunny.1 mph79%29.74 "HgN/A
3:50 PM75 °FSprinkles. Broken clouds.5 mph83%29.74 "HgN/A
3:20 PM73 °FSprinkles. Broken clouds.7 mph89%29.74 "HgN/A
2:50 PM73 °FSprinkles. Broken clouds.7 mph78%29.74 "HgN/A
2:20 PM75 °FLight rain. Scattered clouds.10 mph69%29.77 "HgN/A
1:50 PM75 °FScattered clouds.13 mph69%29.77 "HgN/A
1:20 PM77 °FScattered clouds.7 mph65%29.77 "HgN/A
12:50 PM77 °FScattered clouds.7 mph69%29.77 "HgN/A
12:20 PM75 °FBroken clouds.7 mph74%29.77 "HgN/A
11:50 AM77 °FBroken clouds.7 mph74%29.77 "HgN/A
11:20 AM73 °FBroken clouds.8 mph74%29.80 "HgN/A
10:50 AM73 °FBroken clouds.7 mph78%29.80 "HgN/A
10:20 AM73 °FPartly sunny.7 mph78%29.77 "HgN/A
9:50 AM72 °FScattered clouds.8 mph78%29.80 "HgN/A
9:20 AM72 °FBroken clouds.9 mph83%29.80 "HgN/A
8:50 AM70 °FBroken clouds.3 mph88%29.80 "HgN/A
8:20 AM70 °FScattered clouds.5 mph94%29.80 "HgN/A
7:50 AM70 °FSunny.3 mph94%29.77 "Hg10 mi
7:20 AM68 °FBroken clouds.1 mph100%29.77 "HgN/A
6:50 AM66 °FBroken clouds.3 mph100%29.77 "HgN/A
6:20 AM66 °FPassing clouds.5 mph100%29.77 "HgN/A
5:50 AM66 °FPartly cloudy.7 mph100%29.77 "HgN/A
5:20 AM66 °FClear.2 mph100%29.77 "Hg10 mi
4:50 AM66 °FClear.6 mph100%29.77 "Hg10 mi
4:20 AM66 °FPassing clouds.2 mph100%29.77 "HgN/A
3:50 AM66 °FPassing clouds.3 mph100%29.80 "HgN/A
3:20 AM66 °FPartly cloudy.1 mph100%29.80 "HgN/A
2:50 AM66 °FPassing clouds.1 mph100%29.80 "HgN/A
2:20 AM68 °FPartly cloudy.1 mph94%29.80 "HgN/A
1:50 AM68 °FPassing clouds.3 mph100%29.80 "HgN/A
1:20 AM66 °FPartly cloudy.2 mph100%29.80 "HgN/A
12:50 AM68 °FPassing clouds.3 mph100%29.80 "HgN/A
12:20 AM66 °FPassing clouds.3 mph100%29.80 "HgN/A
11:50 PM
Jul 28
68 °FPartly cloudy.7 mph94%29.80 "HgN/A
10:50 PM68 °FSprinkles. Partly cloudy.12 mph88%29.83 "HgN/A
10:20 PM70 °FThunderstorms. Partly cloudy.10 mph83%29.83 "Hg4 mi
9:50 PM72 °FBroken clouds.8 mph78%29.80 "HgN/A
9:20 PM72 °FScattered showers. Partly sunny.7 mph73%29.80 "HgN/A
8:50 PM72 °FScattered clouds.7 mph73%29.77 "HgN/A
8:20 PM72 °FBroken clouds.8 mph73%29.77 "HgN/A
7:50 PM73 °FPartly sunny.9 mph74%29.80 "HgN/A
7:20 PM73 °FScattered clouds.9 mph78%29.77 "HgN/A
6:50 PM72 °FSprinkles. Scattered clouds.7 mph78%29.77 "HgN/A
6:20 PM72 °FRain showers. Scattered clouds.1 mph88%29.80 "HgN/A
Weather by CustomWeather, © 2014

See weather overviewHow to use our weather pages